• MPC Preparation (Info)

  • MPEC 2022-V14 : 2022 UU21

    The following Minor Planet Electronic Circular may be linked-to from your own Web pages, but must not otherwise be redistributed electronically.

    A form allowing access to any MPEC is at the bottom of this page.


    Read MPEC 2022-V13 Read MPEC 2022-V15


    M.P.E.C. 2022-V14                              Issued 2022 November 1, 13:31 UT
    
         The Minor Planet Electronic Circulars contain information on unusual
             minor planets and routine data on comets.  They are published
        on behalf of Division F of the International Astronomical Union by the
              Minor Planet Center, Smithsonian Astrophysical Observatory,
                              Cambridge, MA 02138, U.S.A.
    
                 Prepared using the Tamkin Foundation Computer Network
    
                                  MPC@CFA.HARVARD.EDU
                URL https://www.minorplanetcenter.net/    ISSN 1523-6714
    
                                    2022 UU21                                
    
    
    Observations:
         K22U21U* C2022 10 29.27058201 55 26.440-02 26 24.54         20.83GVEV014G96
         K22U21U  C2022 10 29.27574401 55 31.807-02 26 51.72         21.16GVEV014G96
         K22U21U  C2022 10 29.28091401 55 37.261-02 27 19.66         21.07GVEV014G96
         K22U21U  C2022 10 29.28610401 55 42.582-02 27 47.20         21.76GVEV014G96
         K22U21U KC2022 10 29.36739301 57 09.500-02 35 02.94         21.05GVEV014I52
         K22U21U KC2022 10 29.37008101 57 12.438-02 35 17.63         21.00GVEV014I52
         K22U21U KC2022 10 29.37277101 57 15.404-02 35 32.89         21.00GVEV014I52
         K22U21U KC2022 10 29.37546101 57 18.367-02 35 46.28         20.87GVEV014I52
         K22U21U KC2022 10 29.92326702 09 55.79 -03 32 47.5          20.7 GVEV014L01
         K22U21U KC2022 10 29.92523802 09 58.57 -03 33 01.1          21.0 GVEV014L01
         K22U21U KC2022 10 29.92888302 10 03.73 -03 33 26.8          21.1 GVEV014L01
         K22U21U KC2022 10 30.28645902 19 59.160-04 16 26.30               VEV014I52
         K22U21U KC2022 10 30.28732402 20 00.610-04 16 33.40               VEV014I52
         K22U21U KC2022 10 30.28818102 20 02.050-04 16 39.40         20.69GVEV014I52
         K22U21U KC2022 11 01.01891803 44 58.25 -10 00 46.8          19.2 GVEV014104
         K22U21U KC2022 11 01.02122103 45 08.30 -10 01 24.9          19.4 GVEV014104
    
    Observer details:
    104 San Marcello Pistoiese.  Observers P. Bacci, M. Maestripieri.  Measurer P.
        Bacci.  0.60-m f/4.0 reflector + CCD.
    G96 Mt. Lemmon Survey.  Observer D. C. Fuls.  Measurers E. J. Christensen, D.
        Fay, J. B. Fazekas, D. C. Fuls, A. R. Gibbs, A. D. Grauer, H. Groeller, J.
        K. Hogan, R. A. Kowalski, S. M. Larson, G. J. Leonard, D. Rankin, R. L.
        Seaman, A. Serrano, F. C. Shelly, K. W. Wierzchos.  1.5-m reflector + 10K
        CCD.
    I52 Steward Observatory, Mt. Lemmon Station.  Observer R. A. Kowalski.
        Measurers E. J. Christensen, D. Fay, J. B. Fazekas, D. C. Fuls, A. R.
        Gibbs, A. D. Grauer, H. Groeller, J. K. Hogan, R. A. Kowalski, S. M.
        Larson, G. J. Leonard, D. Rankin, R. L. Seaman, A. Serrano, F. C. Shelly,
        K. W. Wierzchos.  1.0-m prime focus + CCD.
    L01 Visnjan Observatory, Tican.  Observers K. Korlevic, L. Poropat.  Measurer
        K. Korlevic.  1.0-m f/2.9 reflector + CCD.
    
    Orbital elements:
    2022 UU21                                                Earth MOID = 0.0069 AU
    Epoch 2022 Aug. 9.0 TT = JDT 2459800.5                  Veres                   
    M 318.18465              (2000.0)            P               Q                  
    n   0.36082830     Peri.  256.44778     +0.17313583     -0.98489770             
    a   1.9540499      Node   183.58226     +0.90796244     +0.15989049             
    e   0.5311123      Incl.    0.65091     +0.38161262     +0.06641951             
    P   2.73           H   28.32          G   0.15           U   8                  
    Residuals in seconds of arc
    221029 G96  0.0   0.3+    221029 I52  0.0   0.6-    221030 I52  0.4+  0.9-
    221029 G96  0.0   0.4+    221029 I52  0.0   0.7+    221030 I52  0.6+  0.1-
    221029 G96  0.9+  0.2-    221029 L01  0.1-  0.1+    221101 104  0.4+  0.3+
    221029 G96  0.6-  0.3-    221029 L01  0.3-  0.0     221101 104  0.4-  0.1-
    221029 I52  0.1+  0.1+    221029 L01  0.6-  0.6-
    221029 I52  0.1-  0.1+    221030 I52  0.2+  0.7-
    
    Ephemeris:
    2022 UU21                a,e,i = 1.95, 0.53, 1                   q = 0.9162
    Date    TT    R. A. (2000) Decl.     Delta      r    Elong.  Phase     V
    2022 10 02    00 42 23.2 +04 09 27   0.1959  1.1968   177.1     2.4    25.4
    ...
    2022 10 17    00 50 59.2 +02 55 32   0.09725 1.0925   169.3     9.7    24.1
    ...
    2022 10 25    01 12 01.2 +00 59 52   0.04998 1.0428   164.5    14.8    22.7
    ...
    2022 10 31    02 45 45.5 -06 02 29   0.01763 1.0094   159.0    20.6    20.6
    2022 11 01    03 43 29.3 -09 46 40   0.01348 1.0043   148.8    30.8    20.3
    2022 11 02    05 21 30.7 -14 28 01   0.01088 0.9992   128.1    51.4    20.4
    ...
    2022 11 08    11 14 10.5 -09 00 51   0.03342 0.9713    53.3   125.1    26.1
    ...
    2022 11 16    11 58 36.8 -06 28 22   0.07845 0.9420    51.3   125.0    27.9
    ...
    2022 12 01    12 24 59.8 -06 17 15   0.1645  0.9158    60.3   110.8    28.4
    
    M. P. C. Staff               (C) Copyright 2022 MPC           M.P.E.C. 2022-V14
    


    Read MPEC 2022-V13 Read MPEC 2022-V15


    MPEC number:

    Enter an MPEC number in one of the following forms:

    • 1997-B01 (the full form)
    • J97B01 (the packed version of the full form)
    • B01 (the abbreviated form)